User: anonymous   Login
Location: SAPM � Hemmingford
(45.0500°N, 73.5833°W)
Time: 06:50:25
(UTC-05:00)
Language:

Cosmos 1674 Rocket - Orbit

View from above orbital plane
View from above orbital plane
View from above satellite
View from above satellite

Ground track
Ground track

The orbit data is extracted from the following two-line orbital elements,

1 15945U 85069B   18055.60913933 +.00000072 +00000-0 +56840-5 0  9992
2 15945 082.5250 256.6126 0020108 164.9092 195.2727 14.83961637737387
Epoch (UTC): 24 February 2018 14:37:09
Eccentricity: 0.0020108
inclination: 82.5250°
perigee height: 603 km
apogee height: 631 km
right ascension of ascending node: 256.6126°
argument of perigee: 164.9092°
revolutions per day: 14.83961637
mean anomaly at epoch: 195.2727°
orbit number at epoch: 73738

The dashed part of the orbit path shows where the satellite is in the earth's shadow,  

DLR